Time,TemperatureF,DewpointF,PressureIn,WindDirection,WindDirectionDegrees,WindSpeedMPH,WindSpeedGustMPH,Humidity,HourlyPrecipIn,Conditions,Clouds,dailyrainin,SoftwareType,DateUTC
2013-01-16 00:00:00,32.4,30.1,30.10,NE,34,0.0,0.0,91,0.07,,---,0.01,VWS V14.00,2013-01-16 05:00:00,
2013-01-16 00:01:00,32.4,30.1,30.10,NE,34,0.0,0.0,91,0.07,,---,0.01,VWS V14.00,2013-01-16 05:01:00,
2013-01-16 00:02:00,32.3,30.0,30.10,NE,34,0.0,0.0,91,0.07,,---,0.01,VWS V14.00,2013-01-16 05:02:00,
2013-01-16 00:07:00,32.4,30.1,30.09,NE,34,0.0,0.0,91,0.07,,---,0.02,VWS V14.00,2013-01-16 05:07:00,
2013-01-16 00:12:00,32.4,30.1,30.09,ENE,78,0.0,0.0,91,0.08,,---,0.02,VWS V14.00,2013-01-16 05:12:00,
2013-01-16 00:17:00,32.5,30.4,30.09,East,99,0.0,0.0,92,0.06,,---,0.03,VWS V14.00,2013-01-16 05:17:00,
2013-01-16 00:22:00,32.5,30.4,30.09,East,99,0.0,0.0,92,0.06,,---,0.03,VWS V14.00,2013-01-16 05:22:00,
2013-01-16 00:27:00,32.5,30.4,30.09,East,98,0.0,0.0,92,0.09,,---,0.04,VWS V14.00,2013-01-16 05:27:00,
2013-01-16 00:32:00,32.5,30.4,30.08,East,98,0.0,0.0,92,0.07,,---,0.04,VWS V14.00,2013-01-16 05:32:00,
2013-01-16 00:37:00,32.6,30.5,30.08,East,97,0.0,1.0,92,0.04,,---,0.05,VWS V14.00,2013-01-16 05:37:00,
2013-01-16 00:42:00,32.6,30.5,30.07,East,86,0.0,1.0,92,0.04,,---,0.05,VWS V14.00,2013-01-16 05:42:00,
2013-01-16 00:47:00,32.6,30.5,30.07,NNE,30,0.0,0.0,92,0.08,,---,0.06,VWS V14.00,2013-01-16 05:47:00,
2013-01-16 00:52:00,32.6,30.5,30.07,NNE,30,0.0,0.0,92,0.08,,---,0.06,VWS V14.00,2013-01-16 05:52:00,
2013-01-16 00:57:00,32.6,30.5,30.07,NNE,30,0.0,0.0,92,0.05,,---,0.07,VWS V14.00,2013-01-16 05:57:00,
2013-01-16 01:02:00,32.6,30.5,30.07,NNE,30,0.0,0.0,92,0.05,,---,0.07,VWS V14.00,2013-01-16 06:02:00,
2013-01-16 01:08:00,32.6,30.5,30.07,NNE,30,0.0,0.0,92,0.05,,---,0.07,VWS V14.00,2013-01-16 06:08:00,
2013-01-16 01:13:00,32.6,30.5,30.07,NNE,30,0.0,0.0,92,0.05,,---,0.08,VWS V14.00,2013-01-16 06:13:00,
2013-01-16 01:18:00,32.6,30.5,30.07,NNE,30,0.0,0.0,92,0.05,,---,0.08,VWS V14.00,2013-01-16 06:18:00,
2013-01-16 01:23:00,32.6,30.8,30.06,NNE,30,0.0,0.0,93,0.05,,---,0.08,VWS V14.00,2013-01-16 06:23:00,
2013-01-16 01:28:00,32.6,30.5,30.07,NNE,30,0.0,0.0,92,0.04,,---,0.09,VWS V14.00,2013-01-16 06:28:00,
2013-01-16 01:33:00,32.6,30.8,30.06,NNE,30,0.0,0.0,93,0.04,,---,0.09,VWS V14.00,2013-01-16 06:33:00,
2013-01-16 01:38:00,32.6,30.8,30.07,NNE,30,0.0,0.0,93,0.07,,---,0.10,VWS V14.00,2013-01-16 06:38:00,
2013-01-16 01:43:00,32.7,30.9,30.07,NNE,30,0.0,0.0,93,0.07,,---,0.10,VWS V14.00,2013-01-16 06:43:00,
2013-01-16 01:48:00,32.7,30.9,30.06,NNE,30,0.0,0.0,93,0.04,,---,0.10,VWS V14.00,2013-01-16 06:48:00,
2013-01-16 01:53:00,32.7,30.9,30.06,NNE,30,0.0,0.0,93,0.04,,---,0.11,VWS V14.00,2013-01-16 06:53:00,
2013-01-16 01:58:00,32.7,30.9,30.06,NNE,30,0.0,1.0,93,0.04,,---,0.11,VWS V14.00,2013-01-16 06:58:00,
2013-01-16 02:03:00,32.7,30.9,30.06,NNE,30,0.0,0.0,93,0.05,,---,0.12,VWS V14.00,2013-01-16 07:03:00,
2013-01-16 02:08:00,32.7,30.9,30.07,NNE,30,0.0,0.0,93,0.05,,---,0.12,VWS V14.00,2013-01-16 07:08:00,
2013-01-16 02:13:00,32.7,30.9,30.05,NNE,30,0.0,0.0,93,0.05,,---,0.12,VWS V14.00,2013-01-16 07:13:00,
2013-01-16 02:18:00,32.7,30.9,30.05,NNE,30,0.0,0.0,93,0.04,,---,0.12,VWS V14.00,2013-01-16 07:18:00,
2013-01-16 02:23:00,32.7,30.9,30.07,NNE,30,0.0,0.0,93,0.00,,---,0.13,VWS V14.00,2013-01-16 07:23:00,
2013-01-16 02:28:00,32.7,30.9,30.07,WNW,298,0.0,1.0,93,0.00,,---,0.13,VWS V14.00,2013-01-16 07:28:00,
2013-01-16 02:33:00,32.7,30.9,30.07,WNW,298,0.0,0.0,93,0.00,,---,0.13,VWS V14.00,2013-01-16 07:33:00,
2013-01-16 02:38:00,32.7,30.9,30.06,WNW,298,0.0,0.0,93,0.00,,---,0.13,VWS V14.00,2013-01-16 07:38:00,
2013-01-16 02:43:00,32.7,30.9,30.06,WNW,298,0.0,0.0,93,0.00,,---,0.14,VWS V14.00,2013-01-16 07:43:00,
2013-01-16 02:48:00,32.7,30.9,30.06,WNW,298,0.0,0.0,93,0.00,,---,0.14,VWS V14.00,2013-01-16 07:48:00,
2013-01-16 02:53:00,32.7,30.9,30.05,WNW,298,0.0,0.0,93,0.00,,---,0.14,VWS V14.00,2013-01-16 07:53:00,
2013-01-16 02:58:00,32.7,30.9,30.04,WNW,298,0.0,0.0,93,0.00,,---,0.14,VWS V14.00,2013-01-16 07:58:00,
2013-01-16 03:03:00,32.7,30.9,30.04,WNW,298,0.0,0.0,93,0.04,,---,0.15,VWS V14.00,2013-01-16 08:03:00,
2013-01-16 03:08:00,32.7,30.9,30.03,WNW,298,0.0,0.0,93,0.04,,---,0.15,VWS V14.00,2013-01-16 08:08:00,
2013-01-16 03:13:00,32.7,30.9,30.03,WNW,298,0.0,1.0,93,0.04,,---,0.16,VWS V14.00,2013-01-16 08:13:00,
2013-01-16 03:41:00,32.7,31.2,30.03,WNW,298,0.0,0.0,94,0.00,,---,0.16,VWS V14.00,2013-01-16 08:41:00,
2013-01-16 03:46:00,32.7,31.2,30.04,WNW,298,0.0,1.0,94,0.00,,---,0.16,VWS V14.00,2013-01-16 08:46:00,
2013-01-16 03:51:00,32.7,31.2,30.03,WNW,298,0.0,0.0,94,0.00,,---,0.16,VWS V14.00,2013-01-16 08:51:00,
2013-01-16 03:56:00,32.7,31.2,30.05,WNW,298,0.0,1.0,94,0.00,,---,0.16,VWS V14.00,2013-01-16 08:56:00,
2013-01-16 04:01:00,32.7,31.2,30.03,WNW,298,0.0,0.0,94,0.00,,---,0.17,VWS V14.00,2013-01-16 09:01:00,
2013-01-16 04:06:00,32.7,31.2,30.04,WNW,298,0.0,0.0,94,0.00,,---,0.17,VWS V14.00,2013-01-16 09:06:00,
2013-01-16 04:11:00,32.7,31.2,30.03,WNW,298,0.0,0.0,94,0.06,,---,0.18,VWS V14.00,2013-01-16 09:11:00,
2013-01-16 04:16:00,32.7,31.2,30.02,WNW,298,0.0,0.0,94,0.06,,---,0.18,VWS V14.00,2013-01-16 09:16:00,
2013-01-16 04:21:00,32.7,31.2,30.01,WNW,298,0.0,0.0,94,0.05,,---,0.18,VWS V14.00,2013-01-16 09:21:00,
2013-01-16 04:26:00,32.7,31.2,30.01,WNW,298,0.0,0.0,94,0.04,,---,0.19,VWS V14.00,2013-01-16 09:26:00,
2013-01-16 04:31:00,32.7,31.2,30.01,WNW,298,0.0,0.0,94,0.04,,---,0.19,VWS V14.00,2013-01-16 09:31:00,
2013-01-16 04:36:00,32.8,31.3,30.01,WNW,298,0.0,0.0,94,0.04,,---,0.19,VWS V14.00,2013-01-16 09:36:00,
2013-01-16 04:41:00,32.7,31.2,30.00,WNW,298,0.0,0.0,94,0.04,,---,0.19,VWS V14.00,2013-01-16 09:41:00,
2013-01-16 04:46:00,32.7,31.2,30.00,WNW,298,0.0,0.0,94,0.00,,---,0.19,VWS V14.00,2013-01-16 09:46:00,
2013-01-16 04:51:00,32.7,31.2,30.00,WNW,298,0.0,0.0,94,0.00,,---,0.19,VWS V14.00,2013-01-16 09:51:00,
2013-01-16 04:56:00,32.8,31.3,30.00,WNW,298,0.0,0.0,94,0.00,,---,0.19,VWS V14.00,2013-01-16 09:56:00,
2013-01-16 05:01:00,32.8,31.3,29.99,WNW,298,0.0,0.0,94,0.00,,---,0.19,VWS V14.00,2013-01-16 10:01:00,
2013-01-16 05:06:00,32.7,31.2,29.99,WNW,298,0.0,0.0,94,0.00,,---,0.19,VWS V14.00,2013-01-16 10:06:00,
2013-01-16 05:11:00,32.8,31.3,30.00,WNW,298,0.0,0.0,94,0.00,,---,0.19,VWS V14.00,2013-01-16 10:11:00,
2013-01-16 05:16:00,32.8,31.3,29.98,WNW,298,0.0,0.0,94,0.00,,---,0.19,VWS V14.00,2013-01-16 10:16:00,
2013-01-16 05:21:00,32.8,31.3,29.97,WNW,298,0.0,1.0,94,0.00,,---,0.19,VWS V14.00,2013-01-16 10:21:00,
2013-01-16 05:26:00,32.8,31.3,29.98,WNW,298,0.0,0.0,94,0.00,,---,0.19,VWS V14.00,2013-01-16 10:26:00,
2013-01-16 05:31:00,32.8,31.3,29.97,WNW,298,0.0,0.0,94,0.00,,---,0.19,VWS V14.00,2013-01-16 10:31:00,
2013-01-16 05:36:00,32.8,31.3,29.98,WNW,298,0.0,0.0,94,0.00,,---,0.19,VWS V14.00,2013-01-16 10:36:00,
2013-01-16 05:41:00,32.8,31.3,29.99,WNW,298,0.0,0.0,94,0.00,,---,0.19,VWS V14.00,2013-01-16 10:41:00,
2013-01-16 05:46:00,32.7,31.2,29.97,WNW,298,0.0,0.0,94,0.00,,---,0.19,VWS V14.00,2013-01-16 10:46:00,
2013-01-16 05:51:00,32.7,31.2,29.97,WNW,298,0.0,0.0,94,0.00,,---,0.19,VWS V14.00,2013-01-16 10:51:00,
2013-01-16 05:56:00,32.8,31.3,29.97,WNW,298,0.0,0.0,94,0.00,,---,0.19,VWS V14.00,2013-01-16 10:56:00,
2013-01-16 06:02:00,32.8,31.3,29.96,WNW,298,0.0,0.0,94,0.00,,---,0.19,VWS V14.00,2013-01-16 11:02:00,
2013-01-16 06:07:00,32.7,31.2,29.96,WNW,298,0.0,0.0,94,0.00,,---,0.19,VWS V14.00,2013-01-16 11:07:00,
2013-01-16 06:12:00,32.8,31.3,29.95,WNW,298,0.0,0.0,94,0.00,,---,0.19,VWS V14.00,2013-01-16 11:12:00,
2013-01-16 06:17:00,32.8,31.3,29.96,WNW,298,0.0,0.0,94,0.00,,---,0.19,VWS V14.00,2013-01-16 11:17:00,
2013-01-16 06:22:00,32.8,31.3,29.96,WNW,298,0.0,0.0,94,0.00,,---,0.19,VWS V14.00,2013-01-16 11:22:00,
2013-01-16 06:27:00,32.8,31.3,29.95,WNW,298,0.0,0.0,94,0.00,,---,0.19,VWS V14.00,2013-01-16 11:27:00,
2013-01-16 06:32:00,32.8,31.3,29.97,WNW,298,0.0,0.0,94,0.00,,---,0.19,VWS V14.00,2013-01-16 11:32:00,
2013-01-16 06:37:00,32.8,31.3,29.97,WNW,298,0.0,0.0,94,0.00,,---,0.19,VWS V14.00,2013-01-16 11:37:00,
2013-01-16 06:42:00,32.8,31.3,29.97,WNW,298,0.0,0.0,94,0.00,,---,0.19,VWS V14.00,2013-01-16 11:42:00,
2013-01-16 06:47:00,32.8,31.3,29.98,WNW,298,0.0,1.0,94,0.00,,---,0.19,VWS V14.00,2013-01-16 11:47:00,
2013-01-16 06:52:00,32.8,31.3,29.96,WNW,298,0.0,0.0,94,0.00,,---,0.19,VWS V14.00,2013-01-16 11:52:00,
2013-01-16 06:57:00,32.8,31.5,29.94,WNW,298,0.0,0.0,95,0.00,,---,0.19,VWS V14.00,2013-01-16 11:57:00,
2013-01-16 07:02:00,32.8,31.5,29.94,WNW,298,0.0,0.0,95,0.00,,---,0.19,VWS V14.00,2013-01-16 12:02:00,
2013-01-16 07:07:00,32.8,31.5,29.94,WNW,298,0.0,0.0,95,0.00,,---,0.19,VWS V14.00,2013-01-16 12:07:00,
2013-01-16 07:12:00,32.8,31.5,29.95,WNW,298,0.0,0.0,95,0.00,,---,0.19,VWS V14.00,2013-01-16 12:12:00,
2013-01-16 07:17:00,32.8,31.5,29.96,WNW,298,0.0,0.0,95,0.00,,---,0.19,VWS V14.00,2013-01-16 12:17:00,
2013-01-16 07:22:00,32.8,31.5,29.96,WNW,298,0.0,0.0,95,0.00,,---,0.19,VWS V14.00,2013-01-16 12:22:00,
2013-01-16 07:27:00,32.8,31.5,29.97,WNW,298,0.0,1.0,95,0.00,,---,0.19,VWS V14.00,2013-01-16 12:27:00,
2013-01-16 07:32:00,32.8,31.5,29.98,WNW,298,0.0,1.0,95,0.00,,---,0.19,VWS V14.00,2013-01-16 12:32:00,
2013-01-16 07:37:00,32.8,31.5,29.97,WNW,298,0.0,0.0,95,0.00,,---,0.19,VWS V14.00,2013-01-16 12:37:00,
2013-01-16 07:42:00,32.8,31.5,29.96,WNW,298,0.0,0.0,95,0.00,,---,0.19,VWS V14.00,2013-01-16 12:42:00,
2013-01-16 07:47:00,32.8,31.5,29.96,WNW,298,0.0,0.0,95,0.00,,---,0.19,VWS V14.00,2013-01-16 12:47:00,
2013-01-16 07:52:00,32.8,31.5,29.94,WNW,298,0.0,0.0,95,0.00,,---,0.19,VWS V14.00,2013-01-16 12:52:00,
2013-01-16 07:57:00,32.8,31.5,29.95,WNW,298,0.0,0.0,95,0.00,,---,0.19,VWS V14.00,2013-01-16 12:57:00,
2013-01-16 08:02:00,32.8,31.5,29.95,WNW,298,0.0,0.0,95,0.00,,---,0.19,VWS V14.00,2013-01-16 13:02:00,
2013-01-16 08:07:00,32.8,31.5,29.95,WNW,298,0.0,0.0,95,0.00,,---,0.19,VWS V14.00,2013-01-16 13:07:00,
2013-01-16 08:12:00,32.8,31.5,29.94,WNW,298,0.0,0.0,95,0.00,,---,0.19,VWS V14.00,2013-01-16 13:12:00,
2013-01-16 08:17:00,32.9,31.6,29.95,WNW,298,0.0,0.0,95,0.00,,---,0.19,VWS V14.00,2013-01-16 13:17:00,
2013-01-16 08:22:00,32.9,31.6,29.96,WNW,298,0.0,0.0,95,0.00,,---,0.19,VWS V14.00,2013-01-16 13:22:00,
2013-01-16 08:27:00,32.9,31.6,29.98,WNW,298,0.0,0.0,95,0.00,,---,0.19,VWS V14.00,2013-01-16 13:27:00,
2013-01-16 08:32:00,32.9,31.6,29.99,WNW,298,0.0,0.0,95,0.00,,---,0.19,VWS V14.00,2013-01-16 13:32:00,
2013-01-16 08:37:00,32.9,31.6,29.99,WNW,298,0.0,0.0,95,0.00,,---,0.19,VWS V14.00,2013-01-16 13:37:00,
2013-01-16 08:42:00,32.9,31.6,29.97,WNW,298,1.0,1.0,95,0.00,,---,0.19,VWS V14.00,2013-01-16 13:42:00,
2013-01-16 08:47:00,32.9,31.6,29.96,WNW,298,0.0,0.0,95,0.00,,---,0.19,VWS V14.00,2013-01-16 13:47:00,
2013-01-16 08:52:00,32.9,31.6,29.97,WNW,298,0.0,0.0,95,0.00,,---,0.19,VWS V14.00,2013-01-16 13:52:00,
2013-01-16 08:57:00,32.9,31.6,29.98,WNW,298,0.0,0.0,95,0.00,,---,0.19,VWS V14.00,2013-01-16 13:57:00,
2013-01-16 09:02:00,32.9,31.6,29.97,WNW,298,0.0,1.0,95,0.00,,---,0.19,VWS V14.00,2013-01-16 14:02:00,
2013-01-16 09:07:00,32.9,31.6,29.99,WNW,298,0.0,0.0,95,0.00,,---,0.19,VWS V14.00,2013-01-16 14:07:00,
2013-01-16 09:12:00,32.9,31.6,29.98,WNW,298,0.0,0.0,95,0.00,,---,0.19,VWS V14.00,2013-01-16 14:12:00,
2013-01-16 09:17:00,32.9,31.6,29.97,WNW,298,0.0,0.0,95,0.00,,---,0.19,VWS V14.00,2013-01-16 14:17:00,
2013-01-16 09:22:00,32.9,31.6,29.98,WNW,298,0.0,0.0,95,0.00,,---,0.19,VWS V14.00,2013-01-16 14:22:00,
2013-01-16 09:27:00,32.9,31.6,29.98,WNW,298,0.0,0.0,95,0.00,,---,0.19,VWS V14.00,2013-01-16 14:27:00,
2013-01-16 09:32:00,32.9,31.6,29.97,WNW,298,0.0,0.0,95,0.00,,---,0.19,VWS V14.00,2013-01-16 14:32:00,
2013-01-16 09:37:00,33.0,31.7,29.97,WNW,298,0.0,0.0,95,0.00,,---,0.19,VWS V14.00,2013-01-16 14:37:00,
2013-01-16 09:42:00,33.0,31.7,29.96,WNW,298,0.0,0.0,95,0.00,,---,0.19,VWS V14.00,2013-01-16 14:42:00,
2013-01-16 09:47:00,33.0,31.7,29.96,WNW,298,0.0,0.0,95,0.00,,---,0.19,VWS V14.00,2013-01-16 14:47:00,
2013-01-16 09:52:00,33.0,31.7,29.94,WNW,298,0.0,0.0,95,0.00,,---,0.19,VWS V14.00,2013-01-16 14:52:00,
2013-01-16 09:57:00,33.0,31.7,29.94,WNW,298,0.0,0.0,95,0.00,,---,0.19,VWS V14.00,2013-01-16 14:57:00,
2013-01-16 10:02:00,33.0,31.7,29.95,WNW,298,0.0,0.0,95,0.00,,---,0.19,VWS V14.00,2013-01-16 15:02:00,
2013-01-16 10:07:00,33.0,31.7,29.96,WNW,298,0.0,0.0,95,0.00,,---,0.19,VWS V14.00,2013-01-16 15:07:00,
2013-01-16 10:12:00,33.0,31.7,29.97,WNW,298,0.0,0.0,95,0.00,,---,0.19,VWS V14.00,2013-01-16 15:12:00,
2013-01-16 10:17:00,33.0,31.7,29.95,WNW,298,0.0,0.0,95,0.00,,---,0.19,VWS V14.00,2013-01-16 15:17:00,
2013-01-16 10:22:00,33.0,31.7,29.95,WNW,298,0.0,0.0,95,0.00,,---,0.19,VWS V14.00,2013-01-16 15:22:00,
2013-01-16 10:27:00,33.0,31.7,29.94,WNW,298,0.0,0.0,95,0.00,,---,0.19,VWS V14.00,2013-01-16 15:27:00,
2013-01-16 10:32:00,33.0,31.7,29.94,WNW,298,0.0,0.0,95,0.00,,---,0.19,VWS V14.00,2013-01-16 15:32:00,
2013-01-16 10:37:00,33.0,31.7,29.94,WNW,298,0.0,1.0,95,0.00,,---,0.19,VWS V14.00,2013-01-16 15:37:00,
2013-01-16 10:42:00,33.0,31.7,29.94,WNW,298,0.0,0.0,95,0.00,,---,0.19,VWS V14.00,2013-01-16 15:42:00,
2013-01-16 10:47:00,33.1,31.8,29.95,WNW,298,0.0,0.0,95,0.00,,---,0.20,VWS V14.00,2013-01-16 15:47:00,
2013-01-16 10:52:00,33.1,31.8,29.96,WNW,298,0.0,0.0,95,0.00,,---,0.20,VWS V14.00,2013-01-16 15:52:00,
2013-01-16 10:57:00,33.1,31.8,29.93,SSW,213,0.0,2.0,95,0.00,,---,0.20,VWS V14.00,2013-01-16 15:57:00,
2013-01-16 11:02:00,33.1,31.8,29.94,SSW,213,0.0,0.0,95,0.00,,---,0.20,VWS V14.00,2013-01-16 16:02:00,
2013-01-16 11:07:00,33.1,31.8,29.95,SSW,213,0.0,0.0,95,0.00,,---,0.20,VWS V14.00,2013-01-16 16:07:00,
2013-01-16 11:12:00,33.2,31.9,29.95,SSW,213,0.0,0.0,95,0.00,,---,0.20,VWS V14.00,2013-01-16 16:12:00,
2013-01-16 11:17:00,33.2,31.9,29.94,SSW,213,0.0,0.0,95,0.00,,---,0.20,VWS V14.00,2013-01-16 16:17:00,
2013-01-16 11:22:00,33.2,31.9,29.95,SSW,213,0.0,0.0,95,0.00,,---,0.20,VWS V14.00,2013-01-16 16:22:00,
2013-01-16 11:27:00,33.2,31.9,29.96,West,262,0.0,2.0,95,0.00,,---,0.20,VWS V14.00,2013-01-16 16:27:00,
2013-01-16 11:32:00,33.2,31.9,29.96,West,273,0.0,2.0,95,0.00,,---,0.20,VWS V14.00,2013-01-16 16:32:00,
2013-01-16 11:37:00,33.3,32.0,29.95,West,273,0.0,0.0,95,0.00,,---,0.20,VWS V14.00,2013-01-16 16:37:00,
2013-01-16 11:42:00,33.3,32.0,29.95,West,273,0.0,1.0,95,0.00,,---,0.20,VWS V14.00,2013-01-16 16:42:00,
2013-01-16 11:47:00,33.3,32.0,29.94,West,273,0.0,0.0,95,0.00,,---,0.20,VWS V14.00,2013-01-16 16:47:00,
2013-01-16 11:52:00,33.3,32.0,29.95,West,273,0.0,0.0,95,0.00,,---,0.20,VWS V14.00,2013-01-16 16:52:00,
2013-01-16 11:57:00,33.3,32.0,29.94,West,273,0.0,0.0,95,0.00,,---,0.20,VWS V14.00,2013-01-16 16:57:00,
2013-01-16 12:02:00,33.4,32.1,29.94,West,273,0.0,0.0,95,0.00,,---,0.20,VWS V14.00,2013-01-16 17:02:00,
2013-01-16 12:07:00,33.4,32.1,29.93,West,273,0.0,0.0,95,0.00,,---,0.20,VWS V14.00,2013-01-16 17:07:00,
2013-01-16 12:12:00,33.5,32.2,29.93,West,273,1.0,1.0,95,0.00,,---,0.20,VWS V14.00,2013-01-16 17:12:00,
2013-01-16 12:17:00,33.5,32.2,29.93,West,273,0.0,0.0,95,0.00,,---,0.20,VWS V14.00,2013-01-16 17:17:00,
2013-01-16 12:22:00,33.5,32.2,29.93,West,273,0.0,0.0,95,0.00,,---,0.20,VWS V14.00,2013-01-16 17:22:00,
2013-01-16 12:27:00,33.6,32.3,29.93,West,273,0.0,0.0,95,0.00,,---,0.20,VWS V14.00,2013-01-16 17:27:00,
2013-01-16 12:32:00,33.6,32.6,29.93,West,273,0.0,0.0,96,0.00,,---,0.20,VWS V14.00,2013-01-16 17:32:00,
2013-01-16 12:37:00,33.7,32.7,29.93,West,273,0.0,0.0,96,0.00,,---,0.20,VWS V14.00,2013-01-16 17:37:00,
2013-01-16 12:42:00,33.7,32.7,29.93,West,273,0.0,0.0,96,0.00,,---,0.20,VWS V14.00,2013-01-16 17:42:00,
2013-01-16 12:47:00,33.8,32.8,29.93,West,273,0.0,0.0,96,0.00,,---,0.20,VWS V14.00,2013-01-16 17:47:00,
2013-01-16 12:52:00,33.8,32.8,29.93,West,263,0.0,2.0,96,0.00,,---,0.20,VWS V14.00,2013-01-16 17:52:00,
2013-01-16 12:57:00,33.9,32.9,29.93,SW,219,0.0,3.0,96,0.00,,---,0.20,VWS V14.00,2013-01-16 17:57:00,
2013-01-16 13:02:00,33.9,32.9,29.93,South,185,0.0,4.0,96,0.00,,---,0.20,VWS V14.00,2013-01-16 18:02:00,
2013-01-16 13:07:00,33.9,32.9,29.93,SW,223,0.0,3.0,96,0.00,,---,0.20,VWS V14.00,2013-01-16 18:07:00,
2013-01-16 13:12:00,33.9,32.9,29.93,NW,313,2.0,2.0,96,0.00,,---,0.20,VWS V14.00,2013-01-16 18:12:00,
2013-01-16 13:17:00,33.9,32.9,29.92,South,190,0.0,1.0,96,0.00,,---,0.20,VWS V14.00,2013-01-16 18:17:00,
2013-01-16 13:22:00,33.9,32.9,29.92,South,190,0.0,2.0,96,0.00,,---,0.20,VWS V14.00,2013-01-16 18:22:00,
2013-01-16 13:27:00,34.0,33.0,29.92,South,190,0.0,0.0,96,0.00,,---,0.20,VWS V14.00,2013-01-16 18:27:00,
2013-01-16 13:32:00,34.0,33.0,29.92,South,190,0.0,0.0,96,0.00,,---,0.20,VWS V14.00,2013-01-16 18:32:00,
2013-01-16 13:37:00,34.0,33.0,29.93,South,190,0.0,1.0,96,0.00,,---,0.20,VWS V14.00,2013-01-16 18:37:00,
2013-01-16 13:42:00,34.1,33.1,29.94,WNW,285,0.0,2.0,96,0.00,,---,0.20,VWS V14.00,2013-01-16 18:42:00,
2013-01-16 13:47:00,34.1,33.1,29.94,West,266,0.0,2.0,96,0.00,,---,0.20,VWS V14.00,2013-01-16 18:47:00,
2013-01-16 13:52:00,34.1,33.1,29.94,South,173,0.0,2.0,96,0.00,,---,0.20,VWS V14.00,2013-01-16 18:52:00,
2013-01-16 13:57:00,34.2,33.2,29.94,West,273,0.0,3.0,96,0.00,,---,0.20,VWS V14.00,2013-01-16 18:57:00,
2013-01-16 14:02:00,34.2,33.2,29.94,South,176,1.0,3.0,96,0.00,,---,0.20,VWS V14.00,2013-01-16 19:02:00,
2013-01-16 14:07:00,34.3,33.3,29.93,SSW,195,0.0,2.0,96,0.00,,---,0.20,VWS V14.00,2013-01-16 19:07:00,
2013-01-16 14:12:00,34.3,33.3,29.94,SSW,198,0.0,2.0,96,0.00,,---,0.20,VWS V14.00,2013-01-16 19:12:00,
2013-01-16 14:17:00,34.3,33.3,29.94,SSW,198,0.0,1.0,96,0.00,,---,0.20,VWS V14.00,2013-01-16 19:17:00,
2013-01-16 14:22:00,34.3,33.3,29.95,South,174,0.0,3.0,96,0.00,,---,0.20,VWS V14.00,2013-01-16 19:22:00,
2013-01-16 14:27:00,34.3,33.3,29.94,South,172,2.0,3.0,96,0.00,,---,0.20,VWS V14.00,2013-01-16 19:27:00,
2013-01-16 14:32:00,34.3,33.3,29.95,SSW,192,0.0,3.0,96,0.00,,---,0.20,VWS V14.00,2013-01-16 19:32:00,
2013-01-16 14:37:00,34.3,33.3,29.94,SSE,161,0.0,2.0,96,0.00,,---,0.20,VWS V14.00,2013-01-16 19:37:00,
2013-01-16 14:42:00,34.4,33.4,29.94,South,183,1.0,4.0,96,0.00,,---,0.20,VWS V14.00,2013-01-16 19:42:00,
2013-01-16 14:47:00,34.4,33.4,29.93,South,171,1.0,2.0,96,0.00,,---,0.20,VWS V14.00,2013-01-16 19:47:00,
2013-01-16 14:52:00,34.4,33.4,29.94,South,175,0.0,2.0,96,0.00,,---,0.20,VWS V14.00,2013-01-16 19:52:00,
2013-01-16 14:57:00,34.4,33.4,29.94,SSW,207,0.0,2.0,96,0.00,,---,0.20,VWS V14.00,2013-01-16 19:57:00,
2013-01-16 15:02:00,34.4,33.4,29.95,SW,231,0.0,3.0,96,0.00,,---,0.20,VWS V14.00,2013-01-16 20:02:00,
2013-01-16 15:07:00,34.5,33.5,29.95,ESE,115,0.0,1.0,96,0.00,,---,0.20,VWS V14.00,2013-01-16 20:07:00,
2013-01-16 15:12:00,34.6,33.6,29.95,WNW,292,0.0,1.0,96,0.00,,---,0.20,VWS V14.00,2013-01-16 20:12:00,
2013-01-16 15:17:00,34.6,33.6,29.95,SSE,158,3.0,5.0,96,0.00,,---,0.20,VWS V14.00,2013-01-16 20:17:00,
2013-01-16 15:22:00,34.6,33.6,29.95,SSE,162,3.0,3.0,96,0.00,,---,0.20,VWS V14.00,2013-01-16 20:22:00,
2013-01-16 15:27:00,34.6,33.6,29.95,South,169,4.0,9.0,96,0.00,,---,0.20,VWS V14.00,2013-01-16 20:27:00,
2013-01-16 15:32:00,34.6,33.6,29.96,WNW,298,1.0,4.0,96,0.00,,---,0.20,VWS V14.00,2013-01-16 20:32:00,
2013-01-16 15:37:00,34.6,33.6,29.96,SSW,198,2.0,6.0,96,0.00,,---,0.20,VWS V14.00,2013-01-16 20:37:00,
2013-01-16 15:42:00,34.6,33.6,29.96,SW,232,0.0,4.0,96,0.00,,---,0.20,VWS V14.00,2013-01-16 20:42:00,
2013-01-16 15:47:00,34.6,33.6,29.96,South,179,0.0,2.0,96,0.00,,---,0.20,VWS V14.00,2013-01-16 20:47:00,
2013-01-16 15:52:00,34.7,33.7,29.97,WSW,250,1.0,4.0,96,0.00,,---,0.20,VWS V14.00,2013-01-16 20:52:00,
2013-01-16 15:57:00,34.7,33.7,29.97,SSW,196,0.0,3.0,96,0.00,,---,0.20,VWS V14.00,2013-01-16 20:57:00,
2013-01-16 16:02:00,34.7,33.7,29.97,SW,221,0.0,4.0,96,0.00,,---,0.20,VWS V14.00,2013-01-16 21:02:00,
2013-01-16 16:07:00,34.7,33.7,29.97,WNW,284,0.0,4.0,96,0.00,,---,0.20,VWS V14.00,2013-01-16 21:07:00,
2013-01-16 16:12:00,34.6,33.6,29.97,South,184,0.0,4.0,96,0.00,,---,0.20,VWS V14.00,2013-01-16 21:12:00,
2013-01-16 16:17:00,34.6,33.6,29.97,West,263,1.0,3.0,96,0.00,,---,0.20,VWS V14.00,2013-01-16 21:17:00,
2013-01-16 16:22:00,34.6,33.6,29.98,South,184,2.0,3.0,96,0.00,,---,0.20,VWS V14.00,2013-01-16 21:22:00,
2013-01-16 16:27:00,34.6,33.6,29.98,SW,232,0.0,4.0,96,0.00,,---,0.20,VWS V14.00,2013-01-16 21:27:00,
2013-01-16 16:32:00,34.6,33.6,29.98,South,188,0.0,2.0,96,0.00,,---,0.20,VWS V14.00,2013-01-16 21:32:00,
2013-01-16 16:37:00,34.6,33.6,29.97,South,184,0.0,6.0,96,0.00,,---,0.20,VWS V14.00,2013-01-16 21:37:00,
2013-01-16 16:42:00,34.5,33.5,29.98,WSW,245,2.0,3.0,96,0.00,,---,0.20,VWS V14.00,2013-01-16 21:42:00,
2013-01-16 16:47:00,34.5,33.5,29.98,SW,224,0.0,2.0,96,0.00,,---,0.20,VWS V14.00,2013-01-16 21:47:00,
2013-01-16 16:52:00,34.5,33.5,29.98,South,180,0.0,2.0,96,0.00,,---,0.20,VWS V14.00,2013-01-16 21:52:00,
2013-01-16 16:57:00,34.4,33.4,29.98,SW,217,1.0,3.0,96,0.00,,---,0.20,VWS V14.00,2013-01-16 21:57:00,
2013-01-16 17:02:00,34.3,33.3,29.99,South,169,0.0,6.0,96,0.00,,---,0.20,VWS V14.00,2013-01-16 22:02:00,
2013-01-16 17:07:00,34.3,33.3,29.99,SW,215,0.0,1.0,96,0.00,,---,0.20,VWS V14.00,2013-01-16 22:07:00,
2013-01-16 17:12:00,34.2,33.2,29.99,South,174,0.0,5.0,96,0.00,,---,0.20,VWS V14.00,2013-01-16 22:12:00,
2013-01-16 17:17:00,34.1,33.1,29.99,South,182,4.0,5.0,96,0.00,,---,0.20,VWS V14.00,2013-01-16 22:17:00,
2013-01-16 17:22:00,34.1,33.1,29.99,West,279,1.0,2.0,96,0.00,,---,0.20,VWS V14.00,2013-01-16 22:22:00,
2013-01-16 17:27:00,34.0,33.0,30.00,South,185,0.0,6.0,96,0.00,,---,0.20,VWS V14.00,2013-01-16 22:27:00,
2013-01-16 17:32:00,33.9,32.9,30.00,South,185,0.0,1.0,96,0.00,,---,0.20,VWS V14.00,2013-01-16 22:32:00,
2013-01-16 17:37:00,33.8,32.8,30.00,South,185,0.0,2.0,96,0.00,,---,0.20,VWS V14.00,2013-01-16 22:37:00,
2013-01-16 17:42:00,33.8,32.8,30.00,South,186,0.0,4.0,96,0.00,,---,0.20,VWS V14.00,2013-01-16 22:42:00,
2013-01-16 17:47:00,33.7,32.7,30.00,South,186,0.0,1.0,96,0.00,,---,0.20,VWS V14.00,2013-01-16 22:47:00,
2013-01-16 17:52:00,33.6,32.6,30.00,South,188,0.0,1.0,96,0.00,,---,0.20,VWS V14.00,2013-01-16 22:52:00,
2013-01-16 17:57:00,33.5,32.2,30.00,South,173,0.0,4.0,95,0.00,,---,0.20,VWS V14.00,2013-01-16 22:57:00,
2013-01-16 18:02:00,33.4,32.1,29.99,South,173,0.0,1.0,95,0.00,,---,0.20,VWS V14.00,2013-01-16 23:02:00,
2013-01-16 18:07:00,33.4,32.1,30.00,SW,221,0.0,2.0,95,0.00,,---,0.20,VWS V14.00,2013-01-16 23:07:00,
2013-01-16 18:12:00,33.3,32.0,30.01,SW,217,0.0,3.0,95,0.00,,---,0.20,VWS V14.00,2013-01-16 23:12:00,
2013-01-16 18:17:00,33.3,32.3,30.01,SSW,193,1.0,3.0,96,0.00,,---,0.20,VWS V14.00,2013-01-16 23:17:00,
2013-01-16 18:22:00,33.2,32.2,30.00,WSW,250,0.0,7.0,96,0.00,,---,0.20,VWS V14.00,2013-01-16 23:22:00,
2013-01-16 18:27:00,33.2,32.2,30.01,SSE,161,0.0,1.0,96,0.00,,---,0.20,VWS V14.00,2013-01-16 23:27:00,
2013-01-16 18:32:00,33.2,32.2,30.01,WNW,298,2.0,4.0,96,0.00,,---,0.20,VWS V14.00,2013-01-16 23:32:00,
2013-01-16 18:37:00,33.2,32.2,30.01,WSW,248,0.0,3.0,96,0.00,,---,0.20,VWS V14.00,2013-01-16 23:37:00,
2013-01-16 18:42:00,33.1,32.1,30.02,WNW,290,2.0,3.0,96,0.00,,---,0.20,VWS V14.00,2013-01-16 23:42:00,
2013-01-16 18:47:00,33.1,32.1,30.02,WNW,302,0.0,2.0,96,0.00,,---,0.20,VWS V14.00,2013-01-16 23:47:00,
2013-01-16 18:52:00,33.0,32.0,30.02,WNW,302,0.0,1.0,96,0.00,,---,0.20,VWS V14.00,2013-01-16 23:52:00,
2013-01-16 18:57:00,33.1,32.1,30.02,WNW,302,0.0,1.0,96,0.00,,---,0.20,VWS V14.00,2013-01-16 23:57:00,
2013-01-16 19:02:00,33.0,32.0,30.02,WNW,286,0.0,3.0,96,0.00,,---,0.20,VWS V14.00,2013-01-17 00:02:00,
2013-01-16 19:07:00,33.0,32.0,30.02,South,176,2.0,4.0,96,0.00,,---,0.20,VWS V14.00,2013-01-17 00:07:00,
2013-01-16 19:12:00,33.0,31.7,30.02,South,186,0.0,1.0,95,0.00,,---,0.20,VWS V14.00,2013-01-17 00:12:00,
2013-01-16 19:17:00,33.0,31.7,30.02,WSW,244,0.0,7.0,95,0.00,,---,0.20,VWS V14.00,2013-01-17 00:17:00,
2013-01-16 19:22:00,33.0,31.7,30.02,South,177,2.0,4.0,95,0.00,,---,0.20,VWS V14.00,2013-01-17 00:22:00,
2013-01-16 19:27:00,32.9,31.6,30.03,WSW,257,0.0,3.0,95,0.00,,---,0.20,VWS V14.00,2013-01-17 00:27:00,
2013-01-16 19:32:00,32.9,31.6,30.03,NNW,340,0.0,3.0,95,0.00,,---,0.20,VWS V14.00,2013-01-17 00:32:00,
2013-01-16 19:37:00,32.9,31.6,30.03,SW,232,0.0,1.0,95,0.00,,---,0.20,VWS V14.00,2013-01-17 00:37:00,
2013-01-16 19:42:00,32.9,31.6,30.03,West,267,0.0,3.0,95,0.00,,---,0.20,VWS V14.00,2013-01-17 00:42:00,
2013-01-16 19:47:00,32.8,31.5,30.03,South,175,0.0,1.0,95,0.00,,---,0.20,VWS V14.00,2013-01-17 00:47:00,
2013-01-16 19:52:00,32.8,31.5,30.02,SSW,202,0.0,2.0,95,0.00,,---,0.20,VWS V14.00,2013-01-17 00:52:00,
2013-01-16 19:57:00,32.8,31.5,30.02,WNW,293,1.0,4.0,95,0.00,,---,0.20,VWS V14.00,2013-01-17 00:57:00,
2013-01-16 20:02:00,32.8,31.5,30.02,West,262,0.0,2.0,95,0.00,,---,0.20,VWS V14.00,2013-01-17 01:02:00,
2013-01-16 20:07:00,32.8,31.5,30.03,West,262,0.0,1.0,95,0.00,,---,0.20,VWS V14.00,2013-01-17 01:07:00,
2013-01-16 20:12:00,32.8,31.5,30.03,West,262,0.0,2.0,95,0.00,,---,0.20,VWS V14.00,2013-01-17 01:12:00,
2013-01-16 20:17:00,32.7,31.4,30.02,NNW,331,1.0,3.0,95,0.00,,---,0.20,VWS V14.00,2013-01-17 01:17:00,
2013-01-16 20:22:00,32.7,31.4,30.02,SW,222,0.0,2.0,95,0.00,,---,0.20,VWS V14.00,2013-01-17 01:22:00,
2013-01-16 20:27:00,32.7,31.4,30.03,SW,233,0.0,2.0,95,0.00,,---,0.20,VWS V14.00,2013-01-17 01:27:00,
2013-01-16 20:32:00,32.7,31.4,30.03,WSW,245,0.0,3.0,95,0.00,,---,0.20,VWS V14.00,2013-01-17 01:32:00,
2013-01-16 20:37:00,32.7,31.4,30.03,WSW,245,0.0,1.0,95,0.00,,---,0.20,VWS V14.00,2013-01-17 01:37:00,
2013-01-16 20:42:00,32.7,31.4,30.03,WSW,245,1.0,1.0,95,0.00,,---,0.20,VWS V14.00,2013-01-17 01:42:00,
2013-01-16 20:47:00,32.6,31.3,30.03,NW,304,0.0,0.0,95,0.00,,---,0.20,VWS V14.00,2013-01-17 01:47:00,
2013-01-16 20:52:00,32.6,31.3,30.03,WNW,299,0.0,2.0,95,0.00,,---,0.20,VWS V14.00,2013-01-17 01:52:00,
2013-01-16 20:57:00,32.6,31.3,30.03,SW,236,0.0,1.0,95,0.00,,---,0.20,VWS V14.00,2013-01-17 01:57:00,
2013-01-16 21:02:00,32.5,31.2,30.03,SW,236,0.0,2.0,95,0.00,,---,0.20,VWS V14.00,2013-01-17 02:02:00,
2013-01-16 21:07:00,32.5,31.2,30.04,WSW,238,0.0,2.0,95,0.00,,---,0.20,VWS V14.00,2013-01-17 02:07:00,
2013-01-16 21:12:00,32.5,31.2,30.04,WSW,242,0.0,2.0,95,0.00,,---,0.20,VWS V14.00,2013-01-17 02:12:00,
2013-01-16 21:17:00,32.5,31.2,30.04,South,179,0.0,4.0,95,0.00,,---,0.20,VWS V14.00,2013-01-17 02:17:00,
2013-01-16 21:22:00,32.5,31.2,30.04,West,271,0.0,2.0,95,0.00,,---,0.20,VWS V14.00,2013-01-17 02:22:00,
2013-01-16 21:27:00,32.5,31.2,30.04,West,271,0.0,1.0,95,0.00,,---,0.20,VWS V14.00,2013-01-17 02:27:00,
2013-01-16 21:32:00,32.5,31.2,30.03,West,271,0.0,1.0,95,0.00,,---,0.20,VWS V14.00,2013-01-17 02:32:00,
2013-01-16 21:37:00,32.4,31.1,30.03,West,271,0.0,0.0,95,0.00,,---,0.20,VWS V14.00,2013-01-17 02:37:00,
2013-01-16 21:42:00,32.4,31.1,30.04,South,182,0.0,3.0,95,0.00,,---,0.20,VWS V14.00,2013-01-17 02:42:00,
2013-01-16 21:47:00,32.4,31.1,30.05,South,185,0.0,2.0,95,0.00,,---,0.20,VWS V14.00,2013-01-17 02:47:00,
2013-01-16 21:52:00,32.4,31.1,30.04,NW,326,0.0,2.0,95,0.00,,---,0.20,VWS V14.00,2013-01-17 02:52:00,
2013-01-16 21:57:00,32.4,31.1,30.03,SSE,167,0.0,3.0,95,0.00,,---,0.20,VWS V14.00,2013-01-17 02:57:00,
2013-01-16 22:02:00,32.4,31.1,30.04,SW,232,0.0,2.0,95,0.00,,---,0.20,VWS V14.00,2013-01-17 03:02:00,
2013-01-16 22:07:00,32.4,31.1,30.04,SSW,205,0.0,2.0,95,0.00,,---,0.20,VWS V14.00,2013-01-17 03:07:00,
2013-01-16 22:12:00,32.4,31.1,30.04,SSW,200,0.0,2.0,95,0.00,,---,0.20,VWS V14.00,2013-01-17 03:12:00,
2013-01-16 22:17:00,32.4,31.1,30.04,NNE,17,0.0,2.0,95,0.00,,---,0.20,VWS V14.00,2013-01-17 03:17:00,
2013-01-16 22:22:00,32.3,31.0,30.04,WNW,290,0.0,2.0,95,0.00,,---,0.20,VWS V14.00,2013-01-17 03:22:00,
2013-01-16 22:27:00,32.3,31.0,30.03,NNW,341,1.0,2.0,95,0.00,,---,0.20,VWS V14.00,2013-01-17 03:27:00,
2013-01-16 22:32:00,32.3,31.0,30.03,South,185,0.0,2.0,95,0.00,,---,0.20,VWS V14.00,2013-01-17 03:32:00,
2013-01-16 22:37:00,32.3,31.0,30.03,WSW,240,0.0,4.0,95,0.00,,---,0.20,VWS V14.00,2013-01-17 03:37:00,
2013-01-16 22:42:00,32.3,31.0,30.04,West,261,1.0,2.0,95,0.00,,---,0.20,VWS V14.00,2013-01-17 03:42:00,
2013-01-16 22:47:00,32.2,30.9,30.04,SW,216,2.0,3.0,95,0.00,,---,0.20,VWS V14.00,2013-01-17 03:47:00,
2013-01-16 22:52:00,32.3,31.0,30.04,South,186,0.0,7.0,95,0.00,,---,0.20,VWS V14.00,2013-01-17 03:52:00,
2013-01-16 22:57:00,32.3,31.0,30.04,South,182,1.0,1.0,95,0.00,,---,0.20,VWS V14.00,2013-01-17 03:57:00,
2013-01-16 23:02:00,32.3,31.0,30.03,SSW,192,0.0,2.0,95,0.00,,---,0.20,VWS V14.00,2013-01-17 04:02:00,
2013-01-16 23:07:00,32.3,31.0,30.04,WNW,284,0.0,3.0,95,0.00,,---,0.20,VWS V14.00,2013-01-17 04:07:00,
2013-01-16 23:12:00,32.2,30.9,30.03,SSW,200,0.0,5.0,95,0.00,,---,0.20,VWS V14.00,2013-01-17 04:12:00,
2013-01-16 23:17:00,32.2,30.9,30.03,SW,229,2.0,2.0,95,0.00,,---,0.20,VWS V14.00,2013-01-17 04:17:00,
2013-01-16 23:22:00,32.2,30.9,30.03,South,173,1.0,3.0,95,0.00,,---,0.20,VWS V14.00,2013-01-17 04:22:00,
2013-01-16 23:27:00,32.2,30.9,30.03,South,182,7.0,7.0,95,0.00,,---,0.20,VWS V14.00,2013-01-17 04:27:00,
2013-01-16 23:32:00,32.2,30.9,30.03,SSW,195,1.0,4.0,95,0.00,,---,0.20,VWS V14.00,2013-01-17 04:32:00,
2013-01-16 23:37:00,32.2,30.9,30.04,SSW,198,0.0,2.0,95,0.00,,---,0.20,VWS V14.00,2013-01-17 04:37:00,
2013-01-16 23:42:00,32.2,30.9,30.04,SSW,213,1.0,4.0,95,0.00,,---,0.20,VWS V14.00,2013-01-17 04:42:00,
2013-01-16 23:48:00,32.3,30.8,30.04,South,173,0.0,4.0,94,0.00,,---,0.20,VWS V14.00,2013-01-17 04:48:00,
2013-01-16 23:53:00,32.3,30.8,30.04,SW,233,1.0,3.0,94,0.00,,---,0.20,VWS V14.00,2013-01-17 04:53:00,
2013-01-16 23:58:00,32.3,30.8,30.04,South,184,2.0,5.0,94,0.00,,---,0.20,VWS V14.00,2013-01-17 04:58:00,